www.pogodaiklimat.ru

ПОГОДА в Эрвине, NC

  • Прогноз погоды в Эрвине
  • Монитор погоды в Эрвине
  • Климат в Эрвине

АРХИВ ПОГОДЫ в Эрвине

Время (UTC), дата Ветер
(напр.,м/с)
 
Видим.   Явления Облачность Т
(С)
Тd
(С)
f
(%)
Тe
(С)
Тes
(С)
Комфортность

P
(гПа)

Po
(гПа)
Тmin
(С)
Tmax
(С)
R
(мм)
SD
(см)
05:35 19.06 Ю  16 км    10/10 420 м  +24.5  +22.9  91  +32  +32  очень
душно 
  1005.6         
05:55 19.06   16 км    10/10 420 м  +24.4  +23.0  92  +32  +32  очень
душно 
  1005.2         
06:15 19.06   16 км    10/10 360 м  +24.2  +23.1  94  +32  +32  очень
душно 
  1004.9         
06:35 19.06   16 км    8/8 360 м  +24.1  +23.5  96  +32  +32  очень
душно 
  1004.9         
06:55 19.06   16 км    8/8 360 м  +23.7  +23.7  100  +32  +32  очень
душно 
  1004.6         
07:15 19.06   16 км    8/8 360 м  +23.6  +23.6  100  +32  +32  очень
душно 
  1004.2         
07:35 19.06 В  16 км    ясно  +23.5  +23.5  100  +32  +32  очень
душно 
  1003.9         
07:55 19.06   16 км    ясно  +23.3  +23.3  100  +33  +33  очень
душно 
  1003.9         
08:15 19.06 Ю  16 км    8/8 270 м  +23.4  +23.4  100  +33  +33  очень
душно 
  1004.2         
08:35 19.06 Ю  16 км    10/10 270 м  +23.5  +23.5  100  +32  +32  очень
душно 
  1004.6         
08:55 19.06 Ю  16 км    10/10 210 м  +23.5  +23.5  100  +32  +32  очень
душно 
  1004.2         
09:15 19.06 Ю  16 км    8/8 150 м  +23.5  +23.5  100  +32  +32  очень
душно 
  1004.2         
09:35 19.06 Ю  16 км    8/8 150 м  +23.5  +23.5  100  +32  +32  очень
душно 
  1004.2         
09:55 19.06 Ю  16 км    10/10 150 м  +23.5  +23.5  100  +32  +32  очень
душно 
  1004.2         
10:15 19.06 Ю  16 км    10/10 150 м  +23.7  +23.7  100  +32  +32  очень
душно 
  1004.2         
10:35 19.06 Ю  16 км    10/10 210 м  +24.0  +24.0  100  +33  +33  очень
душно 
  1004.6         
10:55 19.06 Ю  16 км    10/10 210 м  +24.4  +24.4  100  +34  +34  очень
душно 
  1004.6  +23.3  +24.5     
11:15 19.06 ЮЗ  16 км    8/8 210 м  +24.6  +24.6  100  +34  +35  очень
душно 
  1004.6         
11:35 19.06 Ю  16 км    8/8 210 м  +25.0  +24.9  99  +35  +36  очень
душно 
  1004.9         
11:55 19.06 ЮЗ  16 км    10/8 270 м
[средняя] 
+25.1  +24.8  98  +35  +36  очень
душно 
  1004.9         
12:15 19.06 ЮЗ  16 км    10/8 270 м
[средняя] 
+25.3  +24.6  96  +36  +36  очень
душно 
  1004.9         
12:35 19.06 Ю  16 км    8/8 270 м
[средняя] 
+25.6  +24.0  91  +35  +37  очень
душно 
  1004.9         
12:55 19.06 ЮЗ  16 км    8/8 420 м
[средняя] 
+25.8  +23.7  88  +35  +36  очень
душно 
  1004.9         
13:15 19.06 Ю  16 км    10/8 420 м
[средняя] 
+26.2  +23.4  85  +36  +36  очень
душно 
  1004.6         
13:35 19.06 ЮЗ  16 км    10/8 480 м
[средняя] 
+26.5  +23.6  84  +36  +37  очень
душно 
  1004.6         
13:55 19.06 ЮЗ  16 км    10/5 480 м
[средняя] 
+26.6  +23.6  84  +36  +38  очень
душно 
  1004.6         
14:15 19.06 Ю  16 км    10/5 480 м
[средняя] 
+26.8  +23.7  83  +37  +39  очень
душно 
  1004.6         
14:35 19.06 Ю  16 км    8/8 480 м
[средняя] 
+27.7  +23.8  79  +38  +41  очень
душно 
  1004.2         
14:55 19.06 ЮЗ  16 км    8/8 540 м
[средняя] 
+27.9  +22.4  72  +37  +39  очень
душно 
  1004.2         
15:15 19.06 ЮЗ  16 км    8/8 600 м
[средняя] 
+28.5  +22.4  70  +37  +40  очень
душно 
  1004.2         
15:35 19.06 ЮЗ  16 км    10/8 660 м
[средняя] 
+28.7  +22.2  68  +37  +38  очень
душно 
  1003.9         
15:55 19.06 ЮЗ  16 км    10/5 750 м
[средняя] 
+28.3  +21.8  68  +36  +39  очень
душно 
  1003.9         
16:15 19.06 ЮЗ  16 км    8/5 690 м
[средняя] 
+29.1  +21.6  64  +37  +40  очень
душно 
  1003.5         
16:35 19.06 ЮЗ  16 км    ясно  +29.1  +21.4  63  +37  +51  опасность
солнечного
удара 
  1003.2         
16:55 19.06 ЮЗ  16 км    ясно  +29.6  +21.6  62  +38  +55  опасность
солнечного
удара 
  1002.5  +24.4  +29.6     
17:15 19.06 Ю  16 км    5/5 960 м  +30.0  +21.1  59  +38  +41  очень
душно 
  1002.2         
17:35 19.06 ЮЗ  16 км    5/5 1020 м  +30.1  +20.3  56  +37  +44  очень
душно 
  1002.2         
17:55 19.06 Ю  16 км    5/5 1080 м  +31.0  +20.9  55  +38  +44  очень
душно 
  1001.9         
18:15 19.06 ЮЗ  16 км    8/8 1200 м  +30.5  +20.3  55  +37  +39  очень
душно 
  1001.9         
18:35 19.06 ЮЗ  16 км    5/5 1500 м  +30.9  +20.3  53  +37  +43  очень
душно 
  1001.5         
18:55 19.06 ЮЗ  16 км    ясно  +31.3  +20.6  53  +38  +52  опасность
солнечного
удара 
  1001.2         
19:15 19.06 ЮЗ  4
{7} 
16 км    5/5 1650 м  +31.2  +20.8  54  +38  +42  очень
душно 
  1000.9         
19:35 19.06 ЮЗ  16 км    ясно  +31.5  +20.9  53  +39  +47  очень
душно 
  1000.9         
19:55 19.06 ЮЗ  16 км    5/5 1800 м  +31.4  +20.7  53  +38  +43  очень
душно 
  1000.9         
20:15 19.06 ЮЗ  16 км    ясно  +31.7  +20.8  52  +39  +42  очень
душно 
  1000.9         
20:35 19.06 ЮЗ  16 км    ясно  +31.2  +20.5  53  +38  +43  очень
душно 
  1000.5         
20:55 19.06 ЮЗ  16 км    5/5 1650 м  +31.3  +20.4  52  +38  +40  очень
душно 
  1000.5         
21:15 19.06 ЮЗ  16 км    8/5 1650 м
[средняя] 
+31.0  +20.1  52  +37  +38  очень
душно 
  1000.5         

 

Местоположение метеостанции Harnett County Airport: широта 35.3786 долгота -78.7336 высота над уровнем моря 60 м.

В архиве по умолчанию представлена погода в Эрвине за последние 1-2 суток. Обновление информации о фактической погоде в базе происходит ежечасно! Архивные данные за месяц целиком и за предыдущие месяцы Вы можете получить, выбрав интересующий диапазон дат из раскрывающегося списка и нажав кнопку "Ввод!".

Внимание! Архив погоды МЕТАР в базе сайта хранится не более 60 дней. Нет смысла пытаться выбрать более раннюю дату.

Внимание! Время в таблицах - всемирное. Для получения местного времени необходимо прибавить поправку, которая в Эрвине равна -5 ч.

Ветер - указаны скорость ветра в м/с и направление, откуда дует ветер: С - северный, СВ - северо-восточный, В - восточный, ЮВ - юго-восточный, Ю - южный, ЮЗ - юго-западный, З - западный, СЗ - северо-западный.
Видимость - горизонтальная дальность видимости в метрах или километрах. При видимости от 1 до 10 км при отсутствии осадков обычно наблюдается дымка, при ухудшении видимости до 1 км и менее - туман. В сухую погоду видимость может ухудшаться дымом, пылью или мглою.
Атмосферные явления - указаны явления, наблюдавшиеся в указанный момент времени.
Облачность - указаны через наклонную черту верхняя и нижняя облачность в баллах и высота нижней границы облаков в метрах. Внимание: облачность, как и прочие метеорологические величины в США измеряются автоматическими метеостанциями. Указанные значения в баллах носят условный характер и показывают процент времени, в течение которого, в среднем, лазерный луч высотомера отражался от облаков обратно.
T - Температура воздуха - температура, измеренная на высоте 2 м над землей.
Td - Температура точки росы - температура, при понижении до которой содержащийся в воздухе водяной пар достигнет насыщения.
f - Относительная влажность воздуха - влажноcть воздуха, измеренная на высоте 2 м над землей.
Te - Эффективная температура - температура, которую ощущает одетый по сезону человек в тени. Характеристика душности погоды. При расчете учитывается влияние влажности воздуха и скорости ветра на теплоощущения человека.
Tes - Эффективная температура на солнце - температура, которую ощущает человек, с поправкой на солнечный нагрев. Характеристика знойности погоды. Зависит от высоты солнца над горизонтом, облачности и скорости ветра. Ночью, в пасмурную погоду, а также при ветре 12 м/с и более поправка равна нулю.
P - Атмосферное давление - приведенное к уровню моря атмосферное давление.
Po - Атмосферное давление - измеренное на уровне метеостанции атмосферное давление.
Tmin - Минимальная температура - минимум температуры воздуха на высоте 2 м над землей.
Tmax - Максимальная температура - максимум температуры воздуха на высоте 2 м над землей.
R - Количество осадков - Количество выпавших осадков за 3 или 6 часов, мм.
SD - Снежный покров - Высота снежного покрова, см.